[[{"header":{"parameterUnit":"m.s-1","parameterCategory":1,"la1":30.2991,"la2":30.254,"lo1":-89.0895,"lo2":-89.0444,"dy":0.0017,"dx":0.0017,"nx":28,"ny":28,"refTime":"2024-06-12T21:00:00:Z","depth":0,"parameterNumber":2,"parameterNumberName":"U-component_of_WINDS"},"data":[0,0,0,0,0,0,0,0,0,0,0,0,0,0,0,0,0,0,0,0,0,0,0,0,0,0,0,0,0,0,0,0,0,0,0,0,0,0,0,0,0,0,0,0,0,0,0,0,0,0,0,0,0,0,0,0,0,0,-0.0223,-0.0222,0,-0.011,-0.0109,-0.0108,-0.0039,-0.0039,-0.0038,-0.0038,0.008,0.0082,0.0085,0,0,0,0,0,0,0,0,0,0,0,0,0,-0.0378,-0.0376,-0.0224,-0.0222,-0.0221,-0.0111,-0.0109,-0.0107,-0.0039,-0.0039,-0.0038,-0.0038,0.0079,0.0082,0.0085,0,0,0,0,0,0,0,0,0,0,0,0,0,-0.0293,-0.0375,-0.0224,-0.0173,-0.0168,-0.0111,-0.0109,-0.0107,-0.0039,-0.0039,-0.0038,-0.0038,0.0078,0.0082,0.0086,0.0102,0,0,0.0099,0.0101,0,0,0,0,0,0,0,0,-0.0298,-0.0287,-0.0182,-0.0177,-0.017,-0.0088,-0.012,-0.0037,-0.0039,-0.0088,-0.0038,-0.0037,0.0023,0.0032,0.0052,0.0107,0.0112,0.0099,0.0102,0.0104,0.0105,0,0,0,0,0,0,0,-0.0304,-0.0292,-0.0179,-0.0181,-0.0173,-0.0156,-0.0143,-0.0104,-0.0036,-0.0084,-0.0078,-0.0066,0.0027,0.0048,0.0056,0.0114,0.0099,0.0103,0.0105,0.0107,0.0188,0.0188,0,0,0,0,0,0,-0.0318,-0.0297,-0.0182,-0.0175,-0.0234,-0.0153,-0.0139,-0.0115,-0.0037,-0.0024,-0.0067,-0.0063,0.0041,0.0051,0.006,0.0083,0.0104,0.0107,0.011,0.0188,0.0188,0.0187,0,0,0,0,0,0,-0.0322,-0.0308,-0.0187,-0.0235,-0.0218,-0.0151,-0.0125,-0.0113,-0.0092,-0.0024,-0.0011,-0.0058,0.0041,0.0054,0.0091,0.0088,0.0109,0.0113,0.0189,0.0188,0.0188,0.013,0,0,0,0,0,0,-0.0326,-0.031,-0.0304,-0.0235,-0.0216,-0.0159,-0.0125,-0.0111,-0.0085,-0.008,-0.0012,-0.0,0.0043,0.0084,0.0095,0.0095,0.0117,0.0189,0.0189,0.0188,0.0132,0.0128,0.0123,0,0,0,0,0,-0.0332,-0.0324,-0.0304,-0.029,-0.0207,-0.0159,-0.0148,-0.0099,-0.0085,-0.0078,-0.0035,-0.0002,0.0087,0.0087,0.01,0.0101,0.019,0.0189,0.0188,0.0134,0.0129,0.0124,0,0,0,0,0,0,-0.0395,-0.0314,-0.0291,-0.0261,-0.0217,-0.0148,-0.0137,-0.0107,-0.0066,-0.0063,-0.0003,0.0011,0.0042,0.0076,0.0074,0.0121,0.0142,0.0144,0.0097,0.0092,0.0088,0.0078,0.012,0,0,0,0,0,-0.0405,-0.0374,-0.0305,-0.0285,-0.0264,-0.0205,-0.0182,-0.0148,-0.0101,-0.0082,-0.0035,0.001,0.0048,0.0072,0.0112,0.0138,0.0154,0.0145,0.0141,0.0137,0.0137,0.0153,0.015,0.0185,0.0185,0.0185,0,0,-0.0426,-0.0378,-0.0362,-0.0296,-0.0258,-0.0227,-0.019,-0.0158,-0.0134,-0.0077,-0.004,-0.0004,0.0051,0.0082,0.0098,0.0111,0.0131,0.0136,0.0132,0.0134,0.0152,0.0148,0.0145,0.0184,0.0184,0.0184,0,0,-0.0448,-0.0409,-0.0388,-0.0351,-0.0295,-0.0255,-0.025,-0.0185,-0.0159,-0.0121,-0.0078,-0.0048,0.0017,0.0054,0.0081,0.0073,0.0104,0.0085,0.006,0.0075,0.0073,0.007,0.0066,0.0064,0.0085,0.0085,0.0085,0,-0.0482,-0.0433,-0.0381,-0.0352,-0.0325,-0.0271,-0.025,-0.0216,-0.015,-0.0132,-0.0119,-0.0036,0.0004,0.0045,0.0043,0.0064,0.0071,0.0076,0.0069,0.0067,0.0066,0.0063,0.0061,0.0082,0.0082,0.0083,0.0083,0,-0.0477,-0.0444,-0.0434,-0.0372,-0.0343,-0.0318,-0.0262,-0.0238,-0.0207,-0.0168,-0.013,-0.0079,-0.0029,-0.0017,0.0015,0.0028,0.0034,0.0057,0.008,0.0059,0.0057,0.0056,0.0078,0.0079,0.008,0.0081,0,0,-0.0538,-0.0447,-0.0444,-0.0416,-0.0349,-0.0322,-0.0294,-0.0246,-0.0228,-0.0183,-0.0158,-0.0104,-0.0083,-0.0052,-0.0015,-0.0002,-0.0013,0.002,0.0022,0.0011,0.0004,-0.0015,-0.0017,0.0009,0.0009,0.0009,-0.0001,0,-0.0552,-0.05,-0.0452,-0.0417,-0.0386,-0.0335,-0.0311,-0.0267,-0.023,-0.0198,-0.0157,-0.012,-0.0093,-0.0075,-0.0059,-0.0015,-0.0014,-0.0013,0.0032,0.0033,0.0014,-0.0018,-0.0038,-0.005,-0.0001,-0.0001,-0.0001,0,-0.0561,-0.052,-0.0483,-0.042,-0.0405,-0.0384,-0.0336,-0.0305,-0.0255,-0.0229,-0.0194,-0.0156,-0.0124,-0.0104,-0.0058,-0.0059,-0.0038,-0.0013,-0.0012,-0.0008,0.0013,-0.0016,-0.0052,-0.0055,-0.0002,-0.0002,-0.0002,0,-0.0611,-0.0546,-0.0515,-0.0492,-0.0417,-0.0404,-0.0372,-0.032,-0.0294,-0.0252,-0.0234,-0.0188,-0.0163,-0.0128,-0.0079,-0.0068,-0.0039,-0.0014,-0.0017,-0.0018,-0.0015,-0.0016,-0.005,0.0002,0.0002,0.0002,0.0002,0,-0.0633,-0.0612,-0.0536,-0.0518,-0.0493,-0.0437,-0.0414,-0.0378,-0.0333,-0.0306,-0.0257,-0.0233,-0.0168,-0.0136,-0.0096,-0.0066,-0.0054,-0.0032,-0.0023,-0.0038,-0.0041,-0.0024,-0.0023,0.0002,0.0002,0.0002,0.0002,0,-0.0685,-0.0633,-0.0597,-0.0528,-0.0511,-0.0496,-0.0437,-0.0417,-0.0377,-0.0344,-0.0332,-0.027,-0.0229,-0.0176,-0.0118,-0.0091,-0.0066,-0.0049,-0.0084,-0.0078,-0.0085,-0.0086,-0.0111,-0.0112,-0.0058,-0.0059,-0.0059,0,-0.0703,-0.0686,-0.0616,-0.0595,-0.0565,-0.0531,-0.0504,-0.0448,-0.0422,-0.0363,-0.035,-0.0306,-0.0268,-0.0206,-0.0155,-0.011,-0.0093,-0.0105,-0.0087,-0.0103,-0.0095,-0.0098,-0.0096,-0.0111,-0.0111,-0.0112,-0.0113,0,-0.0741,-0.0716,-0.068,-0.0635,-0.0604,-0.0566,-0.0525,-0.051,-0.0445,-0.0418,-0.0377,-0.0347,-0.0289,-0.0246,-0.0195,-0.0161,-0.0127,-0.0119,-0.0117,-0.0134,-0.0155,-0.0145,-0.0098,-0.0119,-0.0118,-0.0118,-0.0117,-0.0117,-0.0778,-0.0761,-0.0709,-0.067,-0.0633,-0.0596,-0.0574,-0.0531,-0.0496,-0.0445,-0.0413,-0.0373,-0.0322,-0.025,-0.0218,-0.0185,-0.0172,-0.0169,-0.0169,-0.017,-0.0176,-0.0159,-0.0176,-0.0175,-0.0175,-0.0175,-0.0175,0,-0.0815,-0.0779,-0.0744,-0.0688,-0.0658,-0.0627,-0.058,-0.0557,-0.0522,-0.0478,-0.0441,-0.0393,-0.0351,-0.0297,-0.0251,-0.0236,-0.0219,-0.0226,-0.0227,-0.022,-0.019,-0.0196,-0.024,-0.024,-0.024,-0.024,-0.024,-0.024,-0.0831,-0.0801,-0.077,-0.0721,-0.0684,-0.0645,-0.0621,-0.0587,-0.0551,-0.05,-0.0465,-0.043,-0.0381,-0.0331,-0.0291,-0.0276,-0.0262,-0.0275,-0.0255,-0.0228,-0.0222,-0.0217,-0.0223,-0.0272,-0.0272,-0.0289,-0.0289,-0.0289]},{"header":{"parameterUnit":"m.s-1","parameterCategory":1,"la1":30.2991,"la2":30.254,"lo1":-89.0895,"lo2":-89.0444,"dy":0.0017,"dx":0.0017,"nx":28,"ny":28,"refTime":"2024-06-12T21:00:00:Z","depth":0,"parameterNumber":3,"parameterNumberName":"V-component_of_WINDS"},"data":[0,0,0,0,0,0,0,0,0,0,0,0,0,0,0,0,0,0,0,0,0,0,0,0,0,0,0,0,0,0,0,0,0,0,0,0,0,0,0,0,0,0,0,0,0,0,0,0,0,0,0,0,0,0,0,0,0,0,2.1474,2.1475,0,2.1518,2.1519,2.1519,2.1489,2.1488,2.1487,2.1485,2.1528,2.1531,2.1533,0,0,0,0,0,0,0,0,0,0,0,0,0,2.136,2.1362,2.1474,2.1475,2.1475,2.1518,2.1519,2.1519,2.149,2.1488,2.1486,2.1485,2.1527,2.153,2.1533,0,0,0,0,0,0,0,0,0,0,0,0,0,2.1407,2.1363,2.1474,2.1466,2.1465,2.1518,2.1519,2.152,2.149,2.1488,2.1486,2.1484,2.1526,2.153,2.1534,2.1596,0,0,2.1545,2.1546,0,0,0,0,0,0,0,0,2.1405,2.1412,2.1466,2.1466,2.1466,2.1496,2.1494,2.1545,2.149,2.1481,2.1485,2.1483,2.1519,2.1523,2.1536,2.1598,2.16,2.1545,2.1547,2.1549,2.155,0,0,0,0,0,0,0,2.1402,2.141,2.1492,2.1467,2.1467,2.1458,2.1463,2.1504,2.1511,2.1481,2.1479,2.1485,2.1519,2.1532,2.1537,2.1601,2.1545,2.1548,2.155,2.1552,2.1712,2.1714,0,0,0,0,0,0,2.1399,2.1407,2.149,2.1493,2.143,2.1462,2.1467,2.1489,2.151,2.1511,2.1487,2.1483,2.1527,2.1532,2.1538,2.1609,2.1549,2.1552,2.1554,2.171,2.1712,2.1715,0,0,0,0,0,0,2.1397,2.1407,2.1488,2.1449,2.1459,2.1466,2.1491,2.1491,2.1504,2.1514,2.1515,2.15,2.1526,2.1533,2.1581,2.161,2.1554,2.1557,2.1707,2.1711,2.1714,2.1754,0,0,0,0,0,0,2.1394,2.1407,2.1432,2.145,2.1461,2.1532,2.1493,2.1493,2.1511,2.1507,2.1527,2.1528,2.1525,2.1576,2.1585,2.1614,2.156,2.1705,2.1709,2.1713,2.175,2.1758,2.1765,0,0,0,0,0,2.139,2.1442,2.1433,2.1443,2.1493,2.1534,2.154,2.1536,2.1514,2.1537,2.1543,2.1527,2.1606,2.1581,2.1591,2.1622,2.1703,2.1708,2.1712,2.1746,2.1756,2.1765,0,0,0,0,0,0,2.1427,2.1444,2.1435,2.1495,2.1513,2.1529,2.1559,2.1548,2.1573,2.1568,2.1561,2.1566,2.1615,2.1624,2.1595,2.1681,2.1651,2.1658,2.1673,2.1683,2.169,2.1685,2.1563,0,0,0,0,0,2.1442,2.1475,2.1488,2.1539,2.1549,2.1553,2.1571,2.1566,2.1584,2.1592,2.1601,2.1619,2.1647,2.1666,2.1693,2.1752,2.1753,2.1778,2.1785,2.1791,2.1796,2.1823,2.1833,2.173,2.173,2.173,0,0,2.1473,2.1487,2.1508,2.1547,2.1561,2.1592,2.156,2.1596,2.1619,2.1597,2.1642,2.165,2.1669,2.1721,2.1745,2.173,2.1825,2.1797,2.1802,2.1804,2.1829,2.1839,2.1847,2.1733,2.1733,2.1732,0,0,2.1546,2.1561,2.1603,2.1617,2.1638,2.164,2.165,2.1667,2.1671,2.1717,2.17,2.1727,2.1777,2.179,2.1803,2.1877,2.1862,2.1887,2.1925,2.1951,2.1959,2.1966,2.1989,2.1997,2.1892,2.1892,2.1892,0,2.1581,2.163,2.1626,2.1662,2.1678,2.1661,2.1701,2.1715,2.1744,2.1754,2.1737,2.1797,2.1809,2.1862,2.188,2.1893,2.1902,2.1883,2.1959,2.1966,2.1972,2.1993,2.2002,2.1895,2.1895,2.1894,2.1894,0,2.167,2.1704,2.1736,2.1762,2.1782,2.1821,2.1821,2.1841,2.1835,2.1837,2.1881,2.1895,2.1923,2.1936,2.193,2.1987,2.1976,2.196,2.1928,2.1984,2.2004,2.2012,2.1899,2.1898,2.1897,2.1896,0,0,2.1767,2.179,2.1801,2.1811,2.1832,2.1857,2.1893,2.192,2.1936,2.1956,2.1984,2.2026,2.2009,2.2024,2.202,2.2044,2.2096,2.2023,2.2023,2.2033,2.2155,2.2164,2.2174,2.2088,2.2089,2.209,2.2152,0,2.1837,2.19,2.1897,2.1956,2.1984,2.1967,2.1998,2.2013,2.2016,2.204,2.2044,2.2071,2.205,2.2058,2.2081,2.2085,2.212,2.2081,2.211,2.2111,2.2102,2.2185,2.2197,2.2254,2.216,2.2161,2.2162,0,2.1927,2.1948,2.201,2.2023,2.2034,2.2063,2.2085,2.2109,2.2125,2.2125,2.2141,2.2132,2.2166,2.2136,2.2181,2.2155,2.2167,2.217,2.2172,2.2172,2.2138,2.2183,2.2272,2.2279,2.2175,2.2174,2.2173,0,2.1985,2.203,2.2071,2.2081,2.2099,2.2118,2.2126,2.214,2.2155,2.2174,2.2183,2.2207,2.2219,2.2237,2.2233,2.2213,2.2278,2.2249,2.2276,2.2276,2.2288,2.2287,2.2376,2.2303,2.2303,2.2302,2.2302,0,2.2061,2.2098,2.2097,2.2122,2.2162,2.2157,2.2196,2.2202,2.2214,2.2238,2.2226,2.2249,2.2245,2.2267,2.2265,2.23,2.2307,2.2306,2.2304,2.2305,2.2304,2.231,2.2304,2.2305,2.2304,2.2304,2.2303,0,2.2132,2.2133,2.2176,2.2188,2.2192,2.222,2.223,2.2253,2.2255,2.2285,2.2292,2.2295,2.232,2.2319,2.2349,2.2347,2.2389,2.2385,2.2383,2.2381,2.2407,2.2403,2.25,2.2511,2.2434,2.2435,2.2435,0,2.2178,2.2206,2.2221,2.2236,2.2244,2.227,2.2285,2.2281,2.2296,2.2314,2.2334,2.2358,2.2377,2.2418,2.2421,2.2443,2.2436,2.2469,2.2439,2.2438,2.2432,2.2429,2.2429,2.2474,2.2474,2.2475,2.2476,0,2.2259,2.2258,2.228,2.2301,2.2319,2.2336,2.2351,2.2364,2.2361,2.2379,2.2405,2.2419,2.2448,2.2471,2.2491,2.2497,2.2485,2.2486,2.2492,2.2491,2.2488,2.2486,2.2395,2.2483,2.2482,2.2481,2.2481,2.2481,2.2316,2.2339,2.2351,2.2375,2.2386,2.24,2.242,2.2424,2.2446,2.2468,2.2465,2.2492,2.2504,2.253,2.2538,2.2558,2.2546,2.2557,2.2559,2.2561,2.2562,2.2488,2.2563,2.2562,2.2562,2.2562,2.2562,0,2.2393,2.24,2.2422,2.2443,2.2461,2.2449,2.2465,2.248,2.2504,2.2517,2.2535,2.2562,2.2584,2.2589,2.2609,2.2624,2.2619,2.2629,2.2626,2.2627,2.2574,2.2564,2.2633,2.2633,2.2633,2.2633,2.2633,2.2633,2.2435,2.247,2.247,2.2509,2.2516,2.2542,2.2552,2.2564,2.2573,2.2604,2.2622,2.2625,2.2634,2.2654,2.2672,2.2673,2.2679,2.2691,2.269,2.2639,2.2632,2.2625,2.2615,2.2694,2.2694,2.2741,2.2741,2.2742]}]]